Hourly Data Report for September 09, 2017

All times are specified in Local Standard Time (LST). Add 1 hour to adjust for Daylight Saving Time where and when it is observed.

KITCHENER/WATERLOO
ONTARIO

43°27'39.000" N
80°22'43.000" W
321.60 m
6144239
71368
YKF

Download Data

Hourly Data (September 2017)
Hourly Data Report for September 9, 2017
Temp Definition
°C
Dew Point Temp Definition
°C
Rel Hum Definition
%
Wind Dir Definition
10's deg

Wind Spd Definition
km/h
Visibility Definition
km
Stn Press Definition
kPa
Hmdx Definition


Wind Chill Definition


Weather Definition


TIME
00:00 Legend Double Dagger 6.4 5.8 96 35 8 16.1 98.91     LegendNANA
01:00 Legend Double Dagger 6.2 5.6 96 35 9 16.1 98.94     LegendNANA
02:00 Legend Double Dagger 6.0 5.0 93 35 8 16.1 98.97     LegendNANA
03:00 Legend Double Dagger 5.7 5.1 96 34 4 16.1 98.99     LegendNANA
04:00 Legend Double Dagger 4.4 4.0 97 34 8 16.1 99.03     LegendNANA
05:00 Legend Double Dagger 5.0 4.3 95 34 11 16.1 99.10     LegendNANA
06:00 Legend Double Dagger 4.7 3.9 95 35 8 16.1 99.17     LegendNANA
07:00 Legend Double Dagger 7.1 4.7 85 36 11 16.1 99.21     LegendNANA
08:00 Legend Double Dagger 9.7 5.7 76 2 8 16.1 99.22     LegendNANA
09:00 Legend Double Dagger 11.6 4.7 63 2 15 16.1 99.27     LegendNANA
10:00 Legend Double Dagger 13.2 4.7 56 5 11 16.1 99.30     LegendNANA
11:00 Legend Double Dagger 14.1 5.4 56 3 8 16.1 99.30     LegendNANA
12:00 Legend Double Dagger 15.3 4.4 48 4 11 16.1 99.27     LegendNANA
13:00 Legend Double Dagger 15.8 5.7 51 3 8 16.1 99.25     LegendNANA
14:00 Legend Double Dagger 17.0 6.0 48 LegendMM 15 16.1 99.19     LegendNANA
15:00 Legend Double Dagger 17.2 4.4 42 3 11 16.1 99.13     LegendNANA
16:00 Legend Double Dagger 17.1 5.4 46 3 13 16.1 99.12     LegendNANA
17:00 Legend Double Dagger 16.6 6.1 50 35 11 16.1 99.11     LegendNANA
18:00 Legend Double Dagger 14.8 6.6 58 34 8 16.1 99.11     LegendNANA
19:00 Legend Double Dagger 12.1 7.4 73 34 5 16.1 99.13     LegendNANA
20:00 Legend Double Dagger 11.5 5.9 68 1 9 16.1 99.20     LegendNANA
21:00 Legend Double Dagger 9.4 5.8 78 36 9 16.1 99.24     LegendNANA
22:00 Legend Double Dagger 7.6 5.4 86 34 11 16.1 99.26     LegendNANA
23:00 Legend Double Dagger 6.1 4.3 88 LegendMM 4 16.1 99.28     LegendNANA

Notes on Data Quality.

Legend

  • E = Estimated
  • M = Missing
  • NA = Not Available
  • ‡ = Partner data that is not subject to review by the National Climate Archives
Date modified: